Theta_e
356 354 351 350 350 352 346 339 316 317 313 307 307 309 311 322 323 317 317 321 317 325 329 327 326 325 321 318 319 321 323 317 315 304 301 314 340 345 347 349 352 352 352 354 354 354 354 355 356 356 356 356 358 358 361 360 360 361 361 362 362 362 362 362 362 362 362 361 362 361 361 362 362 362 363 362 363 362 363 363 363 363 363 363 362 362 362 362 362 361 364 363 362 363 362 358 355
355 352 352 352 348 346 331 335 314 309 310 306 308 312 313 319 322 315 316 319 320 324 327 327 327 327 327 326 326 324 320 326 327 321 331 339 344 344 349 352 353 352 353 355 356 354 355 355 356 356 354 355 356 358 358 360 360 361 362 362 362 362 362 362 362 362 362 362 362 362 362 363 363 362 362 362 362 362 362 362 362 362 362 362 362 363 362 361 361 360 362 362 362 362 362 361 358
350 350 346 349 351 343 336 333 309 305 306 302 307 313 320 316 315 317 320 322 324 327 328 328 328 327 324 325 320 321 313 329 331 333 333 342 338 341 350 353 353 354 354 356 357 357 356 358 358 357 356 358 360 360 360 360 361 361 361 362 362 361 362 362 362 362 362 362 361 362 362 362 362 361 361 362 362 361 361 359 361 364 363 364 363 363 363 363 362 362 362 363 363 363 362 361 358
350 348 343 343 334 343 322 317 311 308 305 304 307 315 320 317 317 320 324 325 327 328 328 326 323 327 324 319 322 326 324 325 331 333 332 337 335 346 351 353 355 355 356 357 358 358 358 360 362 360 361 362 361 360 361 360 361 362 362 362 362 362 361 361 361 362 361 361 360 360 361 362 362 363 363 363 361 361 361 359 362 363 363 363 363 362 363 362 362 363 362 362 363 363 362 361 357
345 347 349 342 332 323 320 314 313 309 306 307 306 314 320 320 319 321 323 325 327 328 326 325 323 328 329 326 327 318 318 330 332 335 335 341 347 350 352 353 354 354 355 357 359 358 359 362 361 362 361 361 360 361 361 360 361 361 361 361 362 362 361 361 361 360 360 360 358 359 361 362 362 362 362 361 360 359 359 360 360 361 360 363 363 363 363 363 363 363 363 362 363 363 362 362 360
345 353 357 342 329 334 322 312 311 311 314 314 311 315 321 322 320 321 322 325 326 327 327 325 323 324 323 326 329 323 329 322 332 335 338 340 349 352 352 354 353 354 355 356 357 357 358 363 363 362 362 362 362 361 361 361 361 360 360 361 361 361 361 361 361 359 359 360 359 360 361 362 360 360 358 357 356 359 359 359 358 360 362 364 363 362 363 362 364 363 362 362 362 363 362 362 360
339 342 338 339 331 334 314 311 313 315 319 321 316 319 322 324 324 322 322 322 325 326 327 325 327 325 320 326 329 333 336 336 334 336 343 346 351 352 352 352 353 352 354 355 357 357 359 363 363 363 362 362 362 362 361 361 360 360 360 359 360 360 358 360 359 359 359 359 359 359 360 358 358 359 357 357 358 358 358 355 355 356 357 360 363 361 362 363 363 362 361 362 361 362 362 362 361
351 337 334 322 318 319 315 314 317 320 319 325 325 324 325 326 327 322 321 320 319 320 324 326 327 323 321 330 319 332 338 341 342 346 348 350 350 350 351 353 352 353 355 355 356 358 363 363 363 362 362 362 362 361 361 360 360 360 360 359 360 359 357 357 357 357 359 360 360 359 357 357 356 357 358 358 359 357 358 356 353 352 354 356 362 360 363 362 361 362 362 361 361 360 360 360 362
344 340 338 320 312 316 315 315 317 327 325 326 326 332 333 329 328 324 320 323 324 324 324 324 324 318 321 324 323 332 337 344 346 349 349 349 348 350 353 353 352 352 355 357 358 359 360 363 362 362 362 362 360 359 359 360 360 359 359 359 356 355 354 355 358 358 359 359 359 359 356 355 356 357 358 359 360 360 358 354 353 352 356 360 362 361 360 362 362 361 362 363 361 361 361 362 363
336 335 320 318 315 311 310 312 314 319 324 328 327 330 331 330 327 324 321 321 322 324 324 327 325 320 324 321 324 330 336 345 346 346 347 347 348 352 353 353 354 354 354 356 357 358 359 362 362 362 361 360 358 359 359 361 359 359 358 359 356 352 354 356 358 360 359 360 360 360 357 355 356 356 358 359 358 358 358 355 352 353 358 363 362 362 362 361 361 362 363 364 361 361 360 361 362
326 331 330 314 309 307 311 313 317 320 320 325 329 334 334 331 328 323 324 322 325 322 324 327 322 322 323 323 324 338 343 344 343 342 345 347 352 352 352 354 355 355 355 356 357 357 358 360 362 360 359 359 359 359 358 358 360 359 359 358 355 355 355 356 358 359 360 359 360 360 357 356 356 358 358 359 359 358 358 357 358 358 360 362 362 361 360 361 361 361 363 364 362 361 360 361 361
323 322 320 311 310 309 312 314 317 319 322 324 324 332 334 331 327 321 322 320 322 323 322 327 321 326 322 322 324 337 341 341 342 344 346 351 351 353 354 355 356 357 356 357 358 356 357 358 359 357 358 358 358 358 357 357 358 359 358 358 358 357 355 355 355 357 358 358 359 360 358 356 356 358 359 360 360 359 358 358 358 358 359 361 362 360 360 360 360 362 363 363 363 361 360 361 360
325 323 316 312 313 318 318 316 316 321 320 320 324 331 336 330 323 323 322 323 323 322 324 327 328 327 318 322 330 337 337 340 343 346 349 350 352 354 355 355 356 357 358 358 356 355 356 355 356 356 353 357 357 358 357 357 357 359 359 359 358 355 355 354 354 356 356 356 357 358 359 358 357 358 360 360 360 359 359 357 358 360 360 361 360 359 360 360 360 362 362 361 362 361 361 361 361
328 326 321 311 320 318 316 316 319 316 316 322 328 333 336 329 329 328 325 321 322 320 326 330 329 328 323 327 329 331 335 341 344 348 350 351 353 353 354 354 355 356 356 356 355 354 353 354 355 355 354 356 353 355 356 356 357 357 358 358 356 355 353 353 354 355 354 356 358 359 358 358 358 357 358 359 360 360 360 360 361 361 358 359 360 360 360 360 361 361 362 362 361 361 361 361 361
328 332 322 316 313 314 317 313 316 317 316 326 332 332 334 335 333 328 325 320 322 329 331 334 330 324 316 323 323 330 336 341 346 349 350 351 352 352 352 353 354 354 355 355 354 353 352 352 353 353 353 352 350 351 353 355 355 357 357 356 353 353 353 355 356 357 358 358 358 358 358 358 358 357 357 356 358 359 360 359 360 361 359 359 359 360 361 362 361 361 361 361 361 361 360 360 361
334 327 319 313 312 311 316 316 319 317 319 329 333 334 332 332 336 327 330 327 325 331 331 325 332 324 326 325 328 335 340 344 348 349 349 349 350 351 352 352 352 353 353 353 352 352 352 351 351 352 352 352 352 351 351 352 355 354 355 354 353 354 354 356 357 357 357 358 358 356 356 354 356 356 355 355 359 361 360 359 360 360 359 358 358 360 361 363 362 362 361 361 361 361 360 360 360
339 329 316 311 311 312 315 315 317 312 325 329 335 333 327 326 336 337 340 337 326 326 327 329 327 332 328 329 335 340 343 347 348 347 346 346 347 347 348 348 349 350 352 352 352 351 351 350 350 351 352 352 352 352 352 353 356 354 353 354 353 356 355 356 356 355 356 356 352 354 354 351 352 353 355 353 357 358 359 360 359 358 359 359 358 360 362 364 363 362 362 361 361 362 362 363 361
331 319 312 310 310 312 318 318 320 325 322 328 330 332 329 324 330 334 329 325 326 325 326 330 334 333 334 336 340 342 344 344 344 343 342 342 344 343 344 345 346 346 349 350 351 351 350 350 351 350 350 352 353 353 354 354 354 353 350 351 354 353 355 355 352 350 353 352 354 351 350 353 349 350 355 357 358 359 358 358 358 357 357 358 360 361 363 364 364 363 361 361 363 363 365 358 359
324 317 313 311 313 318 324 324 324 324 324 328 331 333 332 327 329 333 322 321 322 323 326 330 329 332 336 338 340 341 342 341 342 341 341 340 341 341 342 343 344 346 347 348 349 350 350 351 352 351 350 351 353 353 353 353 352 350 351 352 354 355 354 352 351 349 348 351 353 351 354 350 350 351 353 355 356 357 357 357 357 357 356 356 360 363 363 363 363 364 365 364 365 365 357 358 358
327 318 313 314 320 322 327 327 326 330 330 328 330 331 335 334 334 339 322 320 323 321 323 326 327 328 332 336 338 339 340 340 341 340 340 340 341 341 341 342 344 345 346 348 348 349 350 350 350 351 351 352 352 352 352 352 350 349 349 350 351 352 350 350 349 348 349 350 349 350 353 352 350 352 354 355 356 354 354 357 356 356 354 355 359 356 358 362 361 362 364 363 359 358 356 357 358
326 321 314 316 324 324 327 328 329 331 331 329 329 332 331 335 334 331 323 319 320 323 327 327 327 329 332 335 337 338 338 339 340 340 338 339 340 342 343 344 344 345 348 349 349 347 348 349 350 351 352 352 352 352 351 350 349 349 350 351 350 350 349 349 348 347 349 349 347 348 352 353 350 349 349 352 352 351 348 348 348 347 349 353 358 351 352 352 353 352 353 355 353 354 355 355 356
327 322 326 329 328 325 330 329 331 332 333 330 331 328 328 337 334 328 323 318 317 323 328 330 332 332 333 334 336 337 337 338 339 338 338 338 339 341 343 345 347 347 349 347 347 347 348 349 350 352 352 351 350 350 351 353 351 349 349 350 349 348 348 348 347 346 349 348 348 350 354 350 349 348 350 352 352 351 350 349 348 349 349 350 353 350 351 352 351 351 352 352 352 353 353 354 355
319 327 330 330 330 328 333 333 332 333 330 329 329 332 333 331 330 330 325 322 324 330 332 333 334 335 336 337 336 336 336 337 338 337 338 338 340 341 343 345 345 345 348 347 348 348 349 350 351 352 351 350 350 352 352 350 349 350 350 349 347 347 348 347 347 348 348 348 349 353 353 352 351 351 351 351 350 350 349 350 349 349 348 349 351 350 350 350 349 350 350 349 350 350 350 352 353
323 319 330 330 333 330 333 332 336 333 331 330 334 334 330 330 325 332 326 331 329 332 334 335 336 336 337 335 336 336 336 337 337 338 339 340 341 342 344 345 346 347 347 347 348 348 350 350 352 352 350 349 350 353 351 350 350 351 352 354 348 349 348 348 348 349 348 346 351 355 355 352 351 351 351 350 349 350 350 350 349 349 349 348 350 352 350 348 348 348 348 348 348 348 348 349 350
324 325 332 332 331 331 332 333 334 334 333 333 333 330 330 333 329 330 327 328 331 333 335 335 335 335 335 335 335 335 335 337 337 338 340 341 342 344 345 346 347 347 345 346 348 348 349 350 351 351 351 350 352 353 351 350 351 352 351 349 350 351 347 348 350 350 349 350 354 355 355 351 351 351 350 350 349 349 349 349 349 348 348 348 349 349 349 347 347 348 348 348 348 348 347 347 349
332 330 332 330 330 332 333 333 331 331 331 333 330 329 332 333 335 328 330 328 332 334 334 334 334 333 333 334 335 335 335 336 337 337 339 341 343 344 344 346 347 346 346 347 347 348 349 351 350 351 351 349 352 352 350 351 351 350 349 350 350 352 348 350 350 350 351 351 352 354 355 351 350 350 350 349 349 348 348 348 347 348 349 349 349 347 349 348 348 348 348 348 347 347 348 348 352
335 331 330 328 330 332 332 330 332 332 331 333 328 327 328 333 329 319 331 330 333 333 332 333 333 332 333 333 334 335 335 335 337 338 339 340 341 342 344 346 347 346 347 346 347 347 350 350 350 351 351 353 352 351 350 350 351 350 351 351 351 349 351 353 351 351 351 352 353 353 354 355 351 350 349 348 349 348 347 347 347 349 347 347 348 348 348 350 350 349 349 348 348 349 349 349 350
334 333 332 330 331 329 329 329 328 331 328 331 328 325 329 332 329 320 326 331 333 330 331 331 332 331 332 333 334 335 335 337 338 338 336 338 339 341 343 344 346 346 346 346 346 347 349 349 349 351 351 353 352 351 353 350 350 352 351 351 349 350 352 350 351 352 354 352 352 352 353 353 354 349 350 349 348 347 346 346 346 346 345 346 349 349 349 350 350 349 350 350 350 350 351 352 353
332 331 324 327 330 326 328 327 328 331 326 334 332 325 323 325 322 326 328 331 332 330 330 330 330 331 332 333 333 334 334 336 337 336 337 339 341 343 343 346 346 346 347 347 347 348 347 347 348 350 352 352 350 350 350 350 350 353 351 351 351 353 352 351 350 351 351 352 352 352 352 355 356 351 351 353 354 347 347 346 346 347 345 347 349 350 349 349 349 350 350 353 353 355 355 355 354
333 329 324 322 321 321 328 331 330 329 328 332 333 311 315 321 325 327 329 330 330 329 328 329 330 330 331 332 332 333 334 335 335 336 337 339 342 343 343 346 348 346 346 348 348 347 349 349 350 351 352 351 350 350 350 350 350 351 352 352 355 352 351 350 352 350 353 353 353 353 353 356 352 352 351 350 350 348 347 346 345 345 347 349 350 349 349 350 350 350 351 353 356 357 353 354 354
320 325 322 313 314 313 325 328 329 325 330 330 329 309 312 318 324 327 328 329 328 326 327 328 329 330 330 331 332 332 333 335 336 336 339 341 343 344 344 346 347 347 349 347 347 348 351 350 351 350 351 350 351 351 350 350 351 352 351 353 352 351 351 351 352 352 352 353 354 353 354 357 352 351 351 350 349 348 347 346 346 346 349 351 349 349 350 350 350 350 352 352 353 353 354 357 356
319 315 308 311 309 313 321 326 327 322 327 330 324 310 311 317 321 326 328 328 328 325 327 328 328 329 329 330 331 331 332 334 336 336 339 341 343 344 344 345 347 347 347 348 349 350 349 350 352 350 351 349 349 351 349 351 351 351 352 355 352 352 352 352 353 353 354 355 355 353 354 355 351 351 351 349 348 348 347 346 346 348 351 350 348 349 352 350 350 351 353 353 352 353 357 356 355
315 309 305 310 311 313 317 322 327 328 324 328 322 311 315 316 322 325 327 327 326 325 325 326 327 328 329 329 329 330 330 331 334 335 338 340 342 344 344 345 346 347 348 349 349 349 348 350 351 349 349 348 348 350 348 350 350 350 352 352 351 352 351 352 353 354 355 354 353 353 354 355 351 350 350 349 348 348 347 346 348 348 352 349 348 348 348 351 350 350 353 355 354 353 354 355 354
311 312 310 312 311 312 311 322 327 327 326 320 326 317 317 320 323 325 326 326 325 324 324 325 327 327 328 328 328 328 328 329 331 333 337 340 341 344 345 348 347 348 349 350 350 349 348 349 348 348 348 348 349 348 348 349 349 350 351 350 355 351 351 352 354 355 354 354 354 353 354 354 352 350 349 349 348 349 347 347 349 350 352 350 348 349 349 350 351 352 354 355 356 356 356 355 354
310 307 308 309 313 315 313 315 321 323 325 321 322 321 320 320 321 325 328 328 324 324 324 325 326 326 327 326 326 326 326 327 330 333 337 339 340 343 345 347 347 348 349 350 350 350 349 349 349 350 347 347 348 348 348 349 348 348 348 350 350 349 350 352 354 354 354 354 354 353 354 354 352 350 349 349 348 352 348 348 348 350 351 349 348 348 349 353 355 353 353 356 359 359 357 356 355
313 312 310 310 311 312 313 319 324 324 320 319 319 317 318 319 319 325 327 331 324 324 324 324 325 326 326 325 325 324 324 327 331 333 337 338 340 343 345 347 347 348 349 349 350 348 348 348 347 349 347 348 348 348 349 347 347 348 346 347 347 350 348 353 352 354 354 354 355 355 354 353 353 351 349 349 352 349 347 348 349 350 351 349 348 349 349 350 352 356 358 359 358 357 357 349 348
317 315 314 313 311 314 321 321 324 326 321 320 320 321 319 318 318 324 326 329 324 323 322 322 323 324 324 324 323 323 323 326 330 333 336 338 340 343 345 346 347 348 348 348 348 347 347 347 347 346 347 348 348 346 346 345 344 344 344 345 344 347 347 350 351 353 354 355 356 354 354 353 352 352 351 350 350 353 348 350 349 350 350 351 350 349 350 350 355 362 360 357 357 353 352 348 347
315 313 313 311 313 312 319 320 324 325 319 315 321 320 319 319 321 325 327 326 320 321 320 321 323 323 324 323 322 322 323 328 330 332 335 338 340 343 344 345 348 345 346 347 346 346 346 346 346 347 347 348 348 347 347 346 345 345 343 343 343 345 348 349 348 351 353 355 356 355 354 352 351 352 353 350 352 349 347 349 351 350 350 348 354 354 355 361 360 356 358 358 355 354 351 352 348
314 311 311 310 312 320 322 322 324 324 320 313 320 318 318 320 321 323 327 327 322 322 321 322 323 322 322 323 322 322 322 324 328 331 335 338 340 342 343 344 346 346 346 346 346 346 345 345 346 347 347 348 348 349 348 346 347 348 346 345 345 345 348 352 350 352 356 356 356 355 355 352 350 351 352 353 350 348 349 350 350 350 349 352 350 350 353 356 358 356 357 357 356 353 354 355 352
310 310 309 308 314 313 308 319 322 323 320 315 319 316 317 321 323 324 328 329 331 331 330 325 323 322 322 322 323 321 322 324 326 330 334 337 340 341 342 342 344 345 346 345 345 344 345 346 346 347 347 348 348 350 351 348 349 349 348 347 347 347 346 352 352 354 355 356 356 357 356 352 350 351 352 353 352 349 350 350 350 350 350 351 350 350 352 356 358 358 358 359 355 348 345 348 353
310 311 310 310 313 315 314 315 319 322 322 321 317 313 313 317 316 319 324 330 332 332 331 330 325 324 324 324 323 323 323 325 327 330 334 337 338 339 340 342 344 344 345 344 345 344 345 345 346 347 347 348 348 353 351 348 351 347 347 347 349 347 348 347 349 349 352 355 356 356 356 354 352 353 354 356 357 350 351 351 350 350 349 350 352 352 353 357 359 358 358 357 355 349 345 346 349
302 312 313 313 317 315 319 319 317 314 311 316 314 304 305 314 316 317 321 325 327 330 327 326 325 322 321 321 321 322 325 328 329 331 334 337 338 339 340 341 342 343 344 345 346 345 346 345 346 347 347 347 347 351 349 349 350 345 343 342 341 341 341 343 343 346 348 352 354 357 358 356 354 356 355 358 362 355 351 351 351 350 350 353 354 355 357 355 357 357 360 358 358 353 348 347 346
299 298 315 315 318 318 319 317 316 308 306 314 319 305 301 312 313 316 320 322 323 327 327 326 323 321 320 321 321 321 326 328 330 332 335 336 338 338 339 340 342 342 344 346 346 346 346 346 347 347 347 347 347 351 349 351 345 344 344 342 342 341 340 342 346 349 350 352 355 355 357 358 358 357 356 358 361 360 354 353 353 352 353 355 362 362 355 354 355 360 364 360 359 357 349 349 349
294 299 315 317 318 317 318 317 314 311 318 319 319 315 304 304 311 317 320 320 321 323 325 326 323 321 321 321 321 322 327 329 330 332 334 336 338 338 338 341 342 343 345 347 346 346 346 347 347 347 348 349 348 352 349 349 345 343 343 343 343 341 341 342 345 348 350 354 353 355 356 357 359 359 358 359 361 359 357 354 356 356 356 357 361 363 354 355 362 364 364 359 361 356 352 352 351
294 309 315 317 319 319 318 315 311 312 309 305 312 319 306 304 311 318 319 315 318 320 323 325 325 322 321 321 321 322 327 330 331 332 333 335 337 338 340 341 343 344 346 346 346 346 347 347 348 348 348 349 348 353 349 348 348 344 343 342 343 343 343 344 348 352 350 356 352 353 354 355 355 358 358 359 360 359 361 359 359 360 360 359 369 363 358 361 362 361 360 359 358 359 360 354 353
319 320 319 317 315 314 313 309 308 305 304 302 309 314 304 302 309 313 317 315 315 319 322 325 327 324 322 321 321 323 327 330 332 333 334 336 338 339 341 343 343 344 346 348 347 348 347 348 348 348 347 348 349 352 352 349 349 347 342 342 343 342 346 345 347 348 348 351 350 351 352 352 353 355 358 358 358 359 362 364 359 360 361 359 369 358 359 362 361 361 363 360 357 359 360 361 357
321 318 314 312 312 312 313 311 308 303 299 300 311 313 309 299 307 312 312 314 318 320 322 324 327 326 324 323 321 322 326 330 331 333 335 336 338 340 341 342 343 345 346 348 347 348 348 348 348 347 348 349 351 352 352 350 349 345 343 343 343 342 344 343 344 345 345 347 348 349 349 351 352 354 356 360 358 358 359 365 362 360 362 369 368 359 358 362 362 362 363 363 360 359 357 356 356
317 312 311 310 307 312 308 306 306 298 296 302 310 313 313 300 303 312 318 321 322 321 321 323 325 327 326 325 322 323 327 330 332 333 334 335 337 339 341 342 343 344 346 346 347 348 348 348 348 347 348 349 351 352 352 351 349 347 344 344 343 343 344 343 343 344 344 346 346 347 348 349 350 353 355 356 357 358 360 359 364 362 366 362 362 362 360 360 362 362 360 361 358 356 359 357 354
314 312 309 301 295 300 296 300 295 293 294 304 312 314 307 305 310 314 318 320 322 324 324 325 326 327 328 328 324 323 327 330 332 332 333 335 336 337 339 341 342 343 344 346 347 348 348 348 348 347 348 350 351 352 352 352 350 348 345 344 344 345 344 344 344 344 345 346 346 347 347 348 348 351 353 355 356 357 360 359 358 359 361 361 365 363 361 360 363 363 363 361 360 361 362 358 357
312 308 301 297 290 290 288 292 295 293 299 310 309 314 305 311 313 318 317 321 323 325 326 327 328 329 329 329 327 324 326 330 332 333 334 335 336 337 339 341 342 343 344 345 347 348 348 348 348 348 348 350 351 352 352 351 351 349 347 346 345 348 345 345 344 344 344 346 346 347 348 348 349 351 352 354 357 357 360 359 363 361 361 361 364 362 361 362 362 361 361 360 359 361 361 360 359
311 311 307 302 297 291 287 289 291 293 296 308 314 306 302 305 309 320 322 322 325 326 327 328 329 330 331 331 328 324 325 330 332 333 334 335 336 338 339 341 342 343 345 346 347 348 348 348 348 348 348 350 351 352 352 351 351 350 349 348 347 348 346 346 345 345 345 346 347 348 348 350 350 351 353 356 358 358 358 359 359 360 361 361 363 363 364 363 364 364 363 360 361 359 361 362 360
311 310 308 303 300 300 293 296 296 300 303 303 305 304 308 310 321 327 329 328 324 326 326 327 328 330 330 331 328 324 325 329 332 333 334 336 337 338 339 341 342 343 345 346 347 348 348 348 349 349 349 350 351 353 352 352 352 352 351 348 347 350 352 348 348 351 347 347 347 348 349 350 351 352 353 356 357 358 357 357 360 362 362 361 363 363 363 363 363 360 360 363 361 367 364 360 360
307 307 302 304 311 308 301 303 304 304 299 299 308 307 308 313 315 320 325 325 324 324 325 326 327 329 329 330 330 325 325 328 332 333 334 336 337 338 340 341 342 344 345 346 347 348 348 349 349 349 349 351 352 353 352 353 352 351 352 351 349 350 351 348 347 350 348 349 348 349 349 350 352 352 354 357 356 357 357 357 357 358 361 361 362 364 362 362 363 362 360 361 362 361 363 360 360
307 302 306 308 315 312 301 294 293 292 290 293 304 302 301 302 301 320 321 322 322 323 323 325 327 328 328 329 331 328 325 328 332 334 336 337 338 339 340 342 343 344 345 346 347 348 349 349 350 349 349 350 352 353 352 353 352 352 352 353 351 351 351 350 349 350 351 351 350 350 351 351 351 353 355 357 358 356 356 363 358 358 360 361 362 362 363 362 362 361 362 362 361 362 364 361 360
309 307 312 303 297 297 298 297 290 290 289 289 294 300 302 303 304 314 317 319 320 322 324 324 325 326 327 328 330 330 327 328 331 333 335 336 337 339 340 341 343 344 346 347 348 349 349 350 351 350 349 351 352 353 353 354 354 353 353 354 354 353 352 352 351 353 352 351 351 350 351 352 353 354 357 357 357 356 356 356 358 357 358 361 361 361 362 361 361 360 360 361 360 361 362 360 360
306 305 307 301 300 297 297 297 297 296 289 291 292 299 296 306 308 315 318 320 321 322 323 324 325 327 328 328 329 330 327 327 330 333 335 337 338 339 340 341 343 344 345 347 348 349 349 349 351 350 351 352 353 353 354 353 354 354 354 356 356 356 355 353 353 352 351 351 352 352 352 351 352 356 355 354 355 357 357 356 356 356 357 359 360 360 361 361 361 360 359 359 359 361 360 360 359
297 298 297 298 298 301 304 302 297 293 292 291 291 290 294 301 310 316 319 322 323 323 323 325 326 327 329 329 328 330 330 328 330 333 335 336 338 339 341 342 344 345 346 348 348 348 349 350 350 351 349 350 352 353 354 354 354 354 355 354 355 355 355 354 353 353 352 352 352 355 353 353 355 355 355 354 354 355 357 357 356 358 356 359 359 360 360 361 360 360 358 358 359 360 361 360 361
299 297 294 297 295 298 295 293 298 297 292 289 290 290 295 305 320 320 320 323 324 325 325 325 327 328 328 329 329 329 330 329 331 333 335 337 338 339 341 342 344 344 345 346 348 349 349 349 350 350 350 351 352 353 354 354 355 355 354 354 356 356 357 355 353 353 353 352 352 353 354 356 352 347 350 349 349 349 351 353 355 356 357 358 360 360 359 360 360 359 358 357 358 359 360 360 359
Wind_Speed
5 3 4 3 2 1 1 1 0 2 3 3 1 3 0 0 1 2 3 2 3 2 2 6 9 7 2 3 4 3 1 6 5 5 3 1 2 6 6 6 7 5 4 3 4 4 4 6 7 7 5 3 4 6 7 7 8 10 11 11 10 10 11 11 11 11 10 11 10 11 11 11 11 12 12 12 12 12 12 11 10 12 13 13 15 14 14 15 15 13 14 15 13 14 14 16 19
4 4 3 3 1 0 2 0 2 3 4 2 1 0 1 2 0 3 7 5 3 4 6 9 6 5 6 9 8 3 3 3 0 1 2 2 4 3 4 8 9 8 4 2 3 4 4 5 7 8 6 3 6 8 6 8 9 10 11 10 10 11 10 11 10 10 11 11 10 9 10 11 11 11 12 12 12 12 12 12 11 11 13 13 14 12 13 14 13 14 15 14 14 14 13 14 18
4 4 3 2 0 0 1 1 1 1 5 4 1 2 2 0 0 0 3 2 5 10 8 8 7 3 3 1 2 2 1 2 3 3 4 3 8 3 5 8 8 7 6 3 3 3 3 5 9 11 12 10 8 9 9 9 10 10 11 11 11 11 10 10 10 10 12 11 10 9 9 11 11 11 11 11 11 12 12 12 12 11 12 12 13 12 12 12 14 13 14 14 14 12 13 13 17
3 2 3 1 1 1 1 2 3 4 5 2 1 2 2 0 3 3 2 2 10 12 8 7 4 2 3 5 1 2 2 0 2 5 5 5 2 7 7 8 8 7 6 4 4 3 3 6 9 9 9 8 8 8 9 9 10 10 10 10 11 11 10 9 9 11 12 10 7 5 6 11 10 10 10 11 11 12 12 12 10 11 11 11 12 12 13 13 13 13 14 15 13 11 11 13 14
4 3 1 0 0 1 2 1 3 2 4 0 2 3 2 2 4 4 3 3 6 10 6 5 4 3 2 4 0 1 1 2 3 1 3 1 4 7 8 8 8 7 6 5 4 4 4 10 9 8 8 9 8 8 8 9 9 9 9 10 11 10 10 10 9 9 11 9 7 6 7 10 10 9 9 11 12 14 12 10 10 10 11 11 12 12 12 12 13 13 13 13 12 11 11 12 14
2 2 0 0 0 1 1 3 5 5 1 1 1 1 1 1 3 4 6 6 4 4 3 4 3 4 3 3 1 2 2 2 2 2 4 2 8 8 8 7 7 6 6 5 4 3 3 9 9 9 8 8 9 8 8 8 9 9 9 9 10 10 10 10 9 9 10 10 8 6 9 10 9 9 11 15 10 10 11 11 10 8 9 11 13 12 13 12 12 12 13 13 12 11 12 11 12
1 1 1 0 0 1 4 4 4 2 1 2 0 1 1 2 2 6 6 5 4 7 3 3 8 6 5 1 2 2 2 4 3 2 3 8 8 8 8 6 6 6 5 4 4 4 4 8 8 8 8 8 8 7 7 7 8 8 9 9 10 11 10 8 7 9 9 9 8 8 10 11 10 10 12 10 9 10 12 14 11 8 8 10 11 13 13 12 12 12 12 12 12 11 11 10 11
2 0 1 1 1 3 4 2 3 1 1 1 1 1 2 1 0 2 3 2 2 2 3 3 1 6 1 3 3 2 2 3 7 9 10 8 9 8 7 6 6 5 5 4 3 2 6 8 7 7 6 7 8 7 6 6 6 7 9 9 11 12 10 4 7 8 8 9 9 9 10 12 10 8 10 10 10 12 14 16 14 8 7 5 10 12 12 12 12 12 13 12 11 10 10 11 12
2 2 0 1 3 2 4 3 1 0 0 2 2 1 2 0 1 3 3 2 4 3 2 4 2 5 1 4 3 0 3 7 9 10 10 10 9 8 5 6 6 6 5 4 3 2 2 7 7 6 6 6 7 5 5 6 6 6 7 8 10 11 8 4 7 7 8 9 9 8 13 13 9 8 11 11 12 14 15 15 14 6 4 7 11 12 12 12 12 12 12 12 12 11 10 11 11
1 1 1 2 2 6 2 2 3 1 1 1 2 3 3 3 1 3 6 4 3 5 1 2 3 6 4 6 2 2 3 9 10 9 8 9 9 8 7 6 6 6 5 3 2 3 1 6 8 7 6 8 8 7 6 6 7 6 7 7 13 15 11 8 8 8 9 10 9 8 13 13 10 8 10 11 13 13 13 13 12 9 1 8 11 11 11 11 10 10 11 11 11 10 10 12 11
1 1 1 2 4 4 3 1 0 1 2 2 2 2 1 1 2 3 1 5 3 2 5 10 6 9 4 2 2 1 7 8 10 9 8 8 8 9 7 6 5 5 5 4 3 3 2 1 7 9 8 7 8 7 7 4 7 7 6 7 11 14 13 9 8 8 9 10 10 10 12 13 11 8 10 11 13 13 13 12 12 9 5 8 10 11 10 9 9 9 10 10 11 10 10 11 11
2 2 2 4 4 2 1 3 0 2 3 1 2 2 2 2 3 5 5 8 4 6 4 0 4 4 6 2 1 4 6 6 7 8 7 8 8 8 7 5 5 5 5 4 4 4 4 5 4 7 9 7 8 8 6 4 3 8 7 6 9 13 15 9 7 7 8 9 9 10 12 14 11 8 8 11 12 13 12 11 10 8 7 6 9 10 9 9 7 8 8 9 10 10 10 10 9
1 1 3 5 2 1 1 2 0 1 3 1 0 2 2 1 3 7 4 5 4 6 1 1 12 2 4 2 1 4 6 5 7 7 8 7 7 7 6 5 5 6 5 5 5 5 6 6 5 4 8 8 8 8 7 5 4 5 8 6 6 12 15 14 8 7 9 8 8 10 11 12 12 7 9 10 11 11 11 10 9 9 7 7 7 9 8 7 7 7 7 9 9 10 9 9 8
1 1 1 2 1 2 1 1 0 2 1 1 1 1 1 2 1 2 8 6 3 1 1 9 2 6 5 5 3 4 4 6 7 7 7 8 7 7 7 5 6 5 5 6 6 5 6 6 6 6 6 6 5 5 6 3 5 4 5 5 6 11 14 14 10 8 8 9 10 11 10 10 12 8 8 9 12 12 10 8 10 9 7 4 7 8 7 6 6 7 7 8 9 9 8 8 8
0 1 2 4 1 2 1 3 5 2 4 2 1 1 1 2 3 3 4 8 2 3 5 3 4 2 5 8 5 7 7 8 8 8 9 8 8 7 7 5 5 5 5 6 6 6 5 6 6 6 6 6 6 2 3 1 2 3 4 6 7 13 12 12 13 10 9 10 11 12 11 10 11 9 8 6 11 12 11 9 10 10 8 6 6 7 7 7 6 6 7 7 8 8 8 7 7
2 2 2 1 1 4 2 0 1 1 3 3 1 2 3 2 2 4 1 2 3 5 3 3 1 1 4 2 3 8 10 9 8 9 9 9 8 7 6 6 4 5 5 5 6 6 5 6 5 5 5 5 6 4 3 1 2 2 4 6 11 13 10 12 14 12 11 9 9 11 10 7 7 8 11 5 9 11 11 8 9 8 9 8 6 7 6 7 7 6 7 7 8 7 6 8 7
1 2 1 2 1 2 3 3 5 5 1 2 2 2 3 4 1 1 1 2 11 4 3 2 1 2 8 2 9 10 10 10 9 9 9 7 6 5 5 4 4 3 4 5 5 5 6 6 5 5 5 6 6 5 3 4 5 7 4 8 12 14 9 10 14 13 12 11 6 7 8 5 4 3 6 5 8 7 9 10 10 9 8 7 5 5 6 7 7 7 7 7 7 8 7 8 7
1 1 3 1 2 2 6 6 9 2 7 4 5 5 6 8 2 2 7 5 4 4 7 5 9 7 7 9 11 10 11 11 10 10 7 6 5 5 4 4 3 4 4 4 5 5 5 5 5 5 5 6 5 4 4 5 5 6 6 6 8 7 7 8 10 7 8 6 10 5 3 4 4 4 4 6 4 6 7 11 11 9 7 5 6 7 8 8 8 8 7 8 8 8 7 4 4
2 1 2 4 4 5 6 5 7 5 3 8 6 4 3 6 7 4 6 3 6 7 4 7 9 9 10 11 11 11 11 10 9 8 8 7 6 8 6 4 3 4 4 4 4 5 4 4 5 5 5 5 6 5 4 5 5 4 6 6 8 10 7 6 7 7 5 6 7 5 3 3 4 4 3 3 5 9 8 10 11 10 8 6 7 10 10 9 9 9 9 8 8 8 4 4 3
3 4 3 5 3 2 4 3 7 4 8 8 8 7 2 1 2 2 7 7 6 9 8 5 9 11 10 11 11 10 10 9 8 8 8 6 6 7 7 6 4 4 4 4 4 4 4 4 5 4 5 5 5 4 4 5 6 5 5 5 7 7 6 5 7 6 5 6 7 5 4 4 4 2 5 7 6 3 5 8 9 11 8 6 9 7 8 7 7 7 8 8 6 4 3 4 3
1 1 4 2 0 1 3 4 5 4 11 11 10 7 5 2 2 3 9 10 4 4 9 13 12 13 13 12 12 10 10 9 7 7 7 6 5 4 4 4 4 3 4 4 4 4 4 5 5 5 4 4 4 4 5 6 6 5 4 5 6 7 6 5 5 5 5 5 6 4 4 5 4 3 2 1 2 3 4 3 4 3 2 6 8 4 3 4 4 4 4 5 4 4 4 3 3
3 4 1 0 0 3 2 4 4 2 4 9 5 12 9 3 1 5 13 11 9 11 10 8 13 15 15 14 12 10 10 9 8 8 8 7 7 6 5 4 4 4 5 4 4 5 5 5 4 5 5 4 4 3 4 6 7 6 5 5 6 7 7 5 3 5 5 5 5 3 6 5 5 3 2 3 4 4 4 3 3 5 6 6 4 2 2 3 4 3 3 4 3 2 2 2 2
4 1 1 2 0 3 1 3 6 3 9 11 10 5 7 3 3 3 9 5 2 5 7 10 11 13 13 12 11 11 10 10 9 8 8 7 6 5 5 5 5 5 4 4 4 4 5 5 5 5 5 4 5 4 4 5 5 6 5 5 6 7 7 5 5 3 5 4 3 4 6 5 4 3 3 4 5 4 5 4 5 5 5 3 1 2 3 3 4 3 3 3 3 3 3 2 3
3 2 1 3 3 4 4 6 6 10 16 13 5 5 7 6 8 1 4 1 4 9 11 10 10 10 13 13 11 12 11 10 9 7 8 8 8 7 6 6 5 4 4 5 5 4 4 6 5 5 4 5 4 4 4 4 5 6 6 7 6 7 7 6 4 4 4 4 4 4 5 5 4 4 3 4 4 5 4 4 4 3 2 1 1 2 3 4 3 3 3 3 3 2 3 3 2
5 0 1 2 3 4 4 4 3 10 8 9 9 7 6 0 4 4 4 3 10 11 11 12 11 11 10 11 10 10 9 7 8 6 5 4 5 5 4 4 5 5 5 6 5 5 5 5 5 5 5 5 4 4 4 4 4 5 6 6 6 8 4 4 4 4 3 3 3 5 4 4 3 3 4 4 4 5 3 3 2 2 0 1 2 3 3 3 3 3 3 3 3 3 3 3 3
2 2 4 4 3 4 3 7 10 11 7 10 11 6 2 2 2 2 2 5 11 13 12 13 11 11 11 11 10 10 9 9 7 7 7 5 5 6 5 5 5 6 5 6 6 5 6 5 6 6 6 5 4 4 4 4 4 5 5 5 7 7 5 5 4 2 3 3 3 4 4 3 3 4 4 3 4 3 2 2 2 1 1 2 3 4 3 2 3 2 3 3 3 3 3 3 3
6 8 5 5 1 2 7 8 9 10 9 4 7 6 1 3 3 3 1 9 13 13 12 12 12 11 10 9 9 9 9 9 9 6 5 5 5 6 5 5 5 5 6 6 6 6 6 6 6 6 6 6 4 4 4 4 4 4 4 4 6 6 6 5 5 4 4 2 3 3 3 3 3 3 4 3 3 3 2 1 2 2 2 2 3 3 2 2 1 2 3 3 4 4 5 3 3
8 10 8 5 4 8 4 9 10 3 6 7 8 6 3 4 2 2 5 9 14 15 12 12 10 9 9 9 9 7 8 7 6 7 8 8 7 6 6 6 6 5 6 6 5 5 6 6 7 7 6 5 5 4 5 4 4 4 4 4 6 6 6 5 5 5 4 3 4 4 3 3 3 3 4 3 3 2 1 1 1 1 2 2 3 2 2 2 2 2 3 2 3 3 4 4 2
9 4 6 3 3 6 8 7 6 4 5 8 2 8 1 3 1 1 7 9 13 15 14 13 11 9 7 7 7 6 7 7 7 7 8 6 6 6 7 6 6 5 4 6 6 7 7 6 7 6 6 5 5 5 4 4 4 4 4 5 5 5 5 5 5 5 5 4 4 4 4 4 3 4 3 4 3 2 2 2 2 2 2 2 2 3 2 2 2 3 4 3 3 3 3 4 3
3 5 4 6 4 4 4 5 6 8 4 5 6 7 6 2 2 2 9 10 10 13 12 12 9 8 7 6 7 7 6 7 8 8 7 6 7 7 8 7 7 6 5 5 7 7 6 5 5 5 6 6 6 4 4 4 3 4 4 4 5 5 5 5 5 4 4 4 4 4 4 3 3 3 4 3 3 3 2 2 2 2 2 2 1 2 2 2 3 4 4 4 4 3 4 4 3
3 1 4 2 6 2 6 2 3 7 1 5 5 2 5 2 1 3 8 12 14 12 11 11 10 9 8 7 7 7 8 9 10 8 7 8 7 7 8 7 7 6 5 6 7 7 7 6 5 5 7 6 6 5 5 4 3 4 4 4 5 5 4 4 4 4 4 3 3 2 3 3 3 4 3 4 3 3 2 2 2 1 1 1 1 2 2 2 2 3 3 4 4 3 3 3 3
2 3 1 1 4 1 4 8 1 6 1 3 4 3 3 3 4 5 5 10 11 12 11 11 10 9 9 7 8 8 8 8 8 6 7 8 8 7 8 8 7 8 7 7 6 7 8 7 6 6 7 7 6 5 5 4 4 4 4 5 4 5 4 4 4 4 3 3 2 2 3 3 3 3 3 3 3 2 2 2 2 1 1 1 2 2 2 3 3 3 3 2 4 5 5 4 4
3 2 1 2 3 4 5 6 5 2 4 4 4 2 2 1 0 2 5 9 11 12 11 11 11 10 10 8 8 7 6 5 6 6 7 8 7 7 7 7 7 8 7 7 7 7 7 8 7 8 8 8 7 5 5 5 4 4 4 4 4 5 4 4 3 4 4 3 3 3 3 3 3 3 3 3 3 3 2 2 2 1 0 2 3 3 2 2 2 3 3 2 2 4 4 4 3
2 2 2 2 3 3 3 4 5 2 3 3 4 3 1 2 2 1 4 8 9 11 11 11 11 9 10 8 8 6 6 6 7 6 8 8 7 8 7 7 6 6 6 7 7 8 8 7 7 7 7 7 6 6 5 5 4 4 4 4 4 4 4 3 3 3 4 3 4 3 4 4 3 3 3 3 3 2 2 2 2 1 1 3 3 3 2 2 2 2 4 2 1 3 4 4 4
6 2 2 1 1 2 5 5 3 2 2 9 5 6 1 2 3 1 1 1 9 11 12 12 12 11 10 8 7 6 6 7 9 7 9 9 9 8 7 7 6 6 5 7 7 6 6 6 6 6 7 6 6 6 5 5 5 4 4 3 3 4 3 3 3 3 3 3 3 4 4 4 3 3 3 3 3 3 2 2 2 1 3 3 3 3 2 3 2 1 2 4 2 3 3 2 3
2 3 1 2 4 1 2 0 1 2 7 7 7 7 5 5 3 1 2 0 5 8 8 9 10 10 9 8 7 6 6 9 7 7 8 8 8 9 7 6 6 5 5 5 6 6 6 6 6 5 6 6 6 6 5 5 4 4 4 3 3 2 3 3 2 3 2 3 3 3 4 3 4 3 2 2 2 3 3 2 3 2 3 2 2 3 3 3 4 5 5 4 5 3 2 2 1
5 3 3 2 1 3 2 3 1 2 4 2 6 6 6 7 9 4 1 0 2 3 6 8 9 9 9 8 8 8 8 10 7 8 9 9 9 9 8 7 7 7 5 6 6 6 7 7 7 7 6 7 7 6 5 5 4 4 3 4 3 3 3 3 3 2 2 2 3 3 3 3 4 4 3 2 2 3 2 2 3 3 2 1 1 1 3 4 3 2 3 1 2 4 2 2 0
5 4 4 1 1 1 2 1 1 2 5 3 1 7 6 7 6 1 0 1 7 8 7 8 9 9 8 9 9 9 10 3 4 5 5 6 7 9 8 7 8 8 6 7 8 7 6 7 7 6 6 6 7 7 6 5 4 4 4 4 3 3 4 4 3 3 3 2 3 3 2 2 3 3 3 3 3 3 3 2 2 2 1 1 1 2 3 4 4 3 3 4 2 2 3 3 3
2 4 3 3 0 4 1 3 1 1 4 3 3 5 3 2 9 5 2 2 4 5 6 9 10 10 8 9 9 8 5 5 6 7 8 8 9 10 8 7 8 8 8 7 6 6 7 7 6 6 6 6 6 6 6 5 4 4 4 4 4 3 1 2 2 2 3 3 3 2 2 2 2 1 2 3 3 2 2 2 2 1 0 1 3 4 4 4 3 3 5 3 4 0 1 2 5
4 5 4 5 3 5 1 1 4 2 2 4 2 5 3 3 3 4 4 3 2 4 5 5 6 10 11 12 11 9 9 8 9 9 10 9 9 9 8 8 8 7 7 7 7 7 6 6 6 7 6 6 6 6 6 6 6 5 3 5 5 4 3 3 2 2 2 2 2 2 1 2 2 2 2 2 1 2 2 2 1 1 0 0 1 2 4 4 3 4 4 4 1 2 3 5 4
2 5 4 3 5 4 2 3 3 2 6 5 9 5 2 1 6 8 7 4 3 4 4 5 6 7 9 8 6 10 13 12 10 9 8 9 9 10 11 9 8 9 8 8 8 8 6 8 8 8 7 7 6 6 6 6 5 5 4 4 4 4 5 4 4 1 2 2 1 2 3 3 3 2 3 3 2 3 2 2 1 0 1 1 0 1 2 3 2 2 2 2 3 2 3 3 4
1 4 8 8 10 8 6 9 7 2 1 2 6 2 4 7 10 12 9 4 6 3 5 9 9 8 5 5 8 6 8 11 13 13 12 12 12 9 7 8 9 8 9 8 8 7 7 7 7 7 6 6 6 6 7 6 6 7 5 5 5 3 4 5 5 5 4 4 4 3 2 3 4 4 4 4 4 3 3 1 1 1 2 1 0 1 2 3 2 3 2 1 2 2 3 3 3
1 5 9 6 9 6 10 10 6 3 4 4 4 5 2 2 10 12 8 9 10 4 6 8 9 9 7 8 7 9 10 9 9 10 11 11 10 9 9 10 10 10 9 8 7 7 6 7 7 7 7 6 6 6 7 6 6 7 8 7 7 6 6 4 4 4 5 4 4 4 4 4 4 5 4 4 3 2 2 1 2 2 2 1 1 1 3 2 2 2 1 2 2 2 2 4 4
4 2 7 7 10 9 11 11 4 1 3 3 4 1 1 3 10 12 11 9 10 10 8 7 9 10 10 9 9 9 10 11 11 11 12 13 13 13 13 13 11 12 9 8 8 7 7 8 8 7 6 6 6 6 7 6 7 6 6 6 6 6 6 6 5 5 4 4 4 5 4 4 4 4 3 3 2 2 2 2 3 2 2 2 2 2 3 1 1 2 2 1 1 3 3 4 3
3 3 5 8 9 8 8 6 4 2 4 0 5 3 1 3 4 9 10 10 10 13 13 10 9 11 11 10 10 11 12 13 13 12 13 12 13 13 12 12 11 9 9 10 10 8 8 7 8 7 6 6 6 7 7 6 6 7 7 6 6 5 6 6 5 4 4 4 5 3 4 4 3 2 2 3 2 3 3 3 3 2 2 2 2 2 2 1 1 2 3 3 3 2 2 1 3
3 16 14 12 12 9 6 4 4 3 3 4 8 6 4 4 1 7 9 12 14 15 14 12 10 12 11 10 9 11 11 10 12 15 15 14 14 13 13 10 9 10 9 9 8 7 7 7 8 8 7 6 6 7 7 7 6 6 7 6 7 6 4 3 4 5 5 4 5 4 4 4 3 2 2 2 3 4 4 3 2 3 2 1 0 1 1 1 2 2 1 2 2 3 2 2 3
6 15 13 10 9 6 3 6 4 4 1 4 5 10 5 3 4 10 12 16 17 11 8 8 7 9 10 9 11 11 11 11 11 11 13 14 13 12 10 11 11 8 7 8 8 8 8 8 8 9 9 6 6 7 7 7 6 7 7 7 8 8 6 6 5 4 4 4 5 4 4 4 2 2 1 2 3 3 4 3 3 1 0 0 0 1 1 1 1 2 1 2 2 3 2 3 3
8 2 6 8 6 6 5 2 2 1 4 2 0 9 8 6 4 7 13 12 13 14 15 14 12 12 12 10 10 11 12 12 11 11 10 9 6 6 7 8 9 9 8 9 8 8 8 8 8 9 8 8 7 7 7 6 6 6 6 8 8 8 8 7 8 7 6 6 5 5 3 2 2 1 1 2 2 2 2 2 1 1 1 1 1 1 1 1 1 2 2 2 2 1 1 2 3
4 7 5 8 1 2 3 2 0 4 5 1 3 7 4 9 11 3 8 8 12 15 13 15 15 13 12 11 11 10 11 11 11 11 10 9 10 11 11 9 8 9 10 11 10 9 9 8 10 10 9 8 7 7 7 7 6 6 6 7 7 7 8 8 8 8 7 7 5 4 4 4 2 2 3 3 3 3 3 3 2 2 1 1 1 1 1 2 2 2 2 2 2 3 2 3 4
8 8 6 6 3 3 3 3 1 3 4 2 3 1 4 3 7 10 11 12 11 13 14 13 14 15 15 13 11 10 11 12 12 11 11 11 11 11 12 12 12 11 11 11 10 9 9 9 9 10 10 8 7 7 7 7 7 6 6 6 6 6 7 7 7 8 7 7 6 6 5 5 5 5 4 5 4 3 3 4 3 2 2 2 1 1 2 2 2 2 1 1 1 1 1 3 3
8 2 9 8 7 6 4 4 6 5 3 2 6 6 5 4 5 1 4 8 12 11 12 10 11 11 12 10 10 11 11 11 11 11 12 13 13 13 12 12 11 11 12 11 10 9 9 9 9 10 9 8 8 8 7 7 6 6 6 6 6 6 6 6 6 7 7 7 6 6 6 5 5 5 5 5 4 4 4 3 3 3 2 2 1 1 1 2 2 2 2 2 1 1 2 1 2
1 3 4 6 6 4 2 4 3 3 4 3 4 5 2 5 1 4 1 2 4 9 11 9 10 9 9 8 10 11 12 12 12 12 12 13 13 13 11 11 11 10 12 11 11 10 10 10 10 10 11 10 9 8 7 7 6 6 6 6 6 6 5 5 5 5 5 6 7 7 6 6 6 5 5 4 4 4 5 4 3 3 2 2 2 2 3 3 3 3 2 1 2 0 2 3 2
6 3 3 5 4 7 4 1 1 3 2 3 1 5 4 6 5 6 2 2 3 6 11 13 13 13 12 12 10 12 12 12 12 12 12 13 12 11 12 12 11 10 10 12 12 12 12 11 10 10 9 9 9 8 8 7 6 6 6 6 6 6 7 7 7 7 7 6 6 6 6 7 6 5 5 4 4 4 4 4 3 3 3 3 3 3 3 3 3 3 2 1 0 0 1 2 1
7 1 6 4 2 6 5 1 2 2 2 2 2 5 4 2 3 2 2 4 6 9 11 13 12 13 15 14 12 12 13 14 14 14 14 14 14 14 12 11 12 13 14 13 13 12 11 10 11 12 10 10 10 9 8 7 7 7 6 6 6 6 7 7 6 7 6 6 6 6 5 5 6 6 5 4 5 5 4 4 4 4 3 3 3 3 3 3 3 2 2 1 1 0 1 1 1
4 5 6 5 0 2 2 5 1 1 2 2 2 2 4 6 6 1 5 8 9 10 10 11 13 13 14 14 14 11 12 12 12 11 11 11 12 13 13 13 12 12 12 12 12 11 10 10 10 11 12 11 10 7 7 7 7 5 5 6 6 6 5 5 5 5 5 6 6 6 6 6 5 5 5 5 5 5 5 5 5 5 4 4 4 3 3 3 3 2 2 1 1 1 1 2 1
2 2 3 1 4 1 6 5 5 4 2 1 1 1 4 6 6 9 10 12 11 11 10 13 15 16 15 14 14 13 12 12 12 12 12 13 13 14 14 13 13 12 11 10 10 9 10 10 10 10 8 8 8 8 8 8 7 6 6 5 5 5 5 5 5 5 5 5 5 6 5 5 6 5 5 5 5 4 4 4 4 4 4 4 4 4 3 3 2 2 2 1 1 1 1 3 2
3 0 3 1 0 4 5 0 1 2 4 3 1 2 5 5 3 5 8 9 11 12 14 12 12 12 13 13 13 13 12 12 13 13 12 12 12 13 13 13 13 11 10 10 10 11 11 9 10 10 11 10 9 9 8 8 7 7 7 7 6 6 6 5 5 5 6 6 5 5 6 5 4 4 3 3 2 1 1 1 2 3 4 4 5 4 3 3 2 3 2 2 2 1 2 2 2
8 7 5 5 4 3 3 3 1 2 3 2 2 4 7 5 1 4 5 3 4 8 10 10 9 10 10 9 10 11 11 11 13 13 13 12 11 11 10 9 7 8 8 10 9 9 9 10 9 9 9 9 10 9 8 8 7 6 8 7 7 6 6 5 6 5 6 6 6 6 6 5 4 3 4 5 4 3 2 2 1 1 3 4 4 4 3 3 3 3 3 1 2 3 3 3 2
Wind_Direction
138 116 102 124 92 126 144 345 5 346 61 64 48 22 233 6 182 98 89 103 124 231 141 121 124 148 172 193 177 151 279 144 199 133 209 229 115 135 141 137 120 109 121 112 116 134 151 160 144 126 105 120 168 151 127 121 121 121 113 111 110 107 103 101 103 105 112 115 113 111 114 116 114 113 110 107 108 109 108 108 110 109 105 101 96 93 94 98 97 99 93 90 84 81 79 91 101
114 117 112 107 96 346 0 12 108 21 49 63 11 247 288 297 20 169 161 177 191 149 132 126 125 68 60 117 135 139 34 6 328 132 71 87 98 97 151 132 130 129 117 91 109 134 144 150 137 116 107 183 175 129 137 130 128 110 111 112 111 107 103 104 108 115 111 94 94 109 121 117 117 117 117 119 118 110 110 113 106 102 101 99 96 97 97 100 104 102 96 87 85 83 78 81 84
128 125 96 55 94 147 140 36 71 44 102 94 277 218 307 5 196 245 170 208 131 117 127 110 111 87 96 41 69 10 238 21 64 82 102 146 121 189 146 129 121 120 118 110 108 119 115 140 151 151 163 187 149 147 134 125 116 117 114 113 110 109 111 113 120 121 103 100 117 129 130 121 120 119 116 113 112 113 106 99 99 100 100 98 99 103 101 96 93 90 89 88 85 84 85 85 94
116 192 136 152 9 185 64 26 76 111 101 174 53 301 354 263 52 67 35 170 121 121 131 133 107 276 112 58 123 85 47 17 17 132 128 173 213 143 135 127 124 120 119 129 134 132 138 156 150 153 158 151 147 139 132 127 121 120 116 111 110 112 119 119 117 103 99 111 109 76 120 121 119 122 121 112 104 98 91 89 95 98 87 99 104 103 95 91 86 80 77 79 79 80 80 78 84
150 209 187 94 112 353 100 122 124 90 86 189 137 280 344 72 97 74 53 69 110 130 138 123 85 9 130 117 142 126 226 86 86 241 116 108 119 132 129 125 124 125 126 131 137 146 163 153 153 156 150 142 138 130 127 123 118 114 112 114 114 117 122 117 105 103 111 116 115 94 115 115 111 106 103 93 79 76 89 96 97 97 112 107 100 96 93 88 84 84 83 83 82 81 79 76 79
180 137 255 100 103 208 44 38 38 59 220 168 85 318 338 358 95 96 80 66 51 68 98 90 143 147 42 3 33 86 142 110 180 85 136 142 133 134 129 124 124 122 121 120 133 146 171 150 153 153 148 144 137 135 129 122 119 119 121 115 114 123 120 112 116 113 114 111 119 99 103 92 77 86 82 68 59 81 82 93 91 90 96 98 100 96 92 87 87 85 85 84 84 83 78 74 74
185 138 344 108 286 94 106 108 77 88 0 165 246 354 20 25 105 109 102 68 23 57 4 98 112 101 81 159 62 50 335 141 102 143 115 138 127 126 125 124 118 115 115 121 130 138 170 151 154 149 149 141 136 127 119 120 123 123 119 126 128 116 106 118 120 112 113 118 124 125 107 95 91 77 84 92 91 81 77 66 50 45 82 91 98 99 94 93 89 85 83 81 82 82 83 75 78
242 154 287 91 8 55 44 100 86 167 12 111 245 45 358 2 100 77 63 71 175 87 103 122 75 92 270 36 118 298 21 59 105 105 121 124 121 120 121 121 114 113 111 116 114 143 161 146 152 147 143 135 128 123 122 115 120 127 130 131 126 113 104 125 116 117 117 122 122 126 111 106 106 100 101 106 95 84 79 77 72 20 27 74 91 93 97 97 97 91 84 84 87 87 82 81 81
344 92 221 67 44 52 82 45 104 163 286 23 354 219 34 271 356 112 61 69 95 82 100 132 143 75 195 60 52 40 57 93 102 119 121 122 123 127 120 118 121 120 113 107 109 110 68 145 140 140 140 127 98 91 106 119 114 122 129 129 114 100 113 136 117 129 131 124 126 123 116 111 112 115 107 99 97 94 100 111 116 127 255 103 87 87 88 87 87 87 85 83 79 73 77 81 82
23 53 328 110 134 75 69 338 64 336 33 18 37 0 333 351 34 84 124 72 101 108 54 71 64 114 116 84 86 12 108 115 117 108 119 125 125 115 111 116 124 123 116 111 106 101 96 141 134 132 119 104 116 130 135 125 126 137 137 143 128 132 144 143 138 134 135 124 122 117 108 116 125 122 107 108 105 107 112 124 128 137 223 83 89 88 86 84 86 85 85 81 80 77 79 81 83
308 19 138 61 41 72 85 163 353 346 334 334 58 321 10 350 81 86 92 122 63 92 105 101 69 118 112 47 67 26 118 121 124 128 135 128 114 113 111 115 114 114 116 107 98 77 81 44 126 120 111 117 123 136 133 133 138 140 147 147 126 129 131 139 137 133 127 123 124 131 117 118 118 123 118 117 116 119 119 125 129 125 96 79 87 88 87 87 85 85 85 82 76 72 76 82 79
9 5 9 90 50 127 224 130 258 300 312 353 82 348 348 10 126 111 144 117 125 126 150 170 156 146 81 97 35 116 125 120 121 132 131 113 108 108 112 109 111 102 97 94 82 67 63 68 49 108 104 115 119 126 124 128 147 139 129 135 130 126 126 129 121 132 123 113 105 109 114 115 123 121 112 117 120 121 127 131 122 115 98 71 84 91 93 95 92 85 81 78 73 69 70 74 77
113 154 71 75 178 64 105 96 309 299 347 351 199 306 323 46 142 147 119 94 109 114 276 142 153 168 88 84 161 127 129 132 135 134 118 108 105 104 106 108 104 103 104 87 82 68 62 57 50 84 126 129 121 125 134 144 151 133 132 134 136 122 117 119 141 152 131 123 110 110 103 105 108 104 105 109 116 112 116 119 109 103 91 85 84 89 93 92 89 85 77 74 71 68 66 68 73
88 184 100 120 21 104 96 100 30 117 286 230 210 281 330 100 92 189 130 104 130 78 279 125 85 112 85 98 126 158 161 142 140 124 110 104 104 106 105 103 105 102 89 90 82 68 62 61 65 66 72 79 67 76 92 114 131 120 133 140 126 107 112 120 152 156 137 133 123 111 104 99 104 114 103 113 114 115 111 113 111 95 77 72 94 92 93 93 90 85 80 75 70 66 64 66 69
73 134 78 116 90 78 252 142 188 153 227 170 153 105 54 73 116 93 119 118 37 148 115 44 159 68 218 158 180 181 160 149 131 116 110 108 106 108 108 97 92 89 86 79 78 72 61 63 67 68 72 73 77 54 76 105 91 165 156 137 100 91 114 144 140 138 120 118 112 105 106 104 104 106 98 103 116 117 118 112 104 95 88 49 67 82 79 75 72 73 77 73 70 66 65 68 71
165 76 77 116 112 125 258 64 52 169 243 177 165 171 104 85 101 114 199 156 133 128 98 166 333 190 138 149 140 150 139 132 125 117 115 112 108 103 104 105 99 95 85 78 77 75 72 70 65 69 70 79 98 80 63 36 150 92 78 85 101 109 137 138 131 126 117 102 86 101 109 107 93 113 114 106 112 107 104 107 99 80 76 71 57 63 73 75 72 68 68 68 74 79 68 66 76
113 84 38 24 143 149 201 173 159 199 203 182 147 164 145 135 193 145 174 100 130 151 77 56 318 76 128 118 128 127 126 123 122 121 115 113 114 108 100 98 106 88 90 87 82 78 72 74 67 72 62 61 71 90 92 74 84 89 88 102 101 111 132 127 121 117 111 102 86 91 102 102 91 78 103 140 113 102 112 101 89 76 57 70 101 94 79 69 65 62 59 63 73 73 65 53 55
64 104 122 225 188 154 200 179 190 194 143 183 176 192 149 137 136 90 97 68 71 78 84 72 53 59 92 110 113 124 125 128 133 129 130 125 124 124 124 125 118 128 118 95 90 82 81 76 80 75 65 58 62 61 60 58 70 84 67 60 71 100 106 95 91 88 83 90 112 68 44 83 83 80 64 106 96 96 103 113 107 90 81 67 86 88 67 56 53 54 57 60 63 60 52 48 21
124 146 109 224 183 233 170 200 190 133 206 163 169 161 179 149 135 168 115 136 120 92 83 98 89 79 92 106 119 130 134 136 141 139 141 140 142 140 143 141 140 138 140 118 103 102 99 92 91 79 71 73 75 69 68 75 78 69 62 63 79 91 93 79 78 93 81 90 100 119 67 48 52 50 47 78 94 113 115 110 109 106 94 63 59 42 38 36 33 43 49 52 48 45 41 32 31
231 112 211 246 217 252 232 192 192 220 149 156 152 169 151 170 153 142 140 152 134 134 129 113 121 129 126 128 132 139 142 145 147 145 147 149 148 148 148 156 155 155 146 142 116 108 116 104 97 97 84 81 90 91 83 82 78 67 62 62 76 86 85 85 79 77 75 83 94 98 97 81 67 32 107 117 106 81 93 105 102 87 81 61 40 38 20 17 21 19 31 41 33 32 33 28 20
260 117 206 235 232 297 263 214 228 194 172 163 158 148 146 195 200 153 139 119 164 173 168 154 156 146 140 142 142 146 148 151 150 148 149 151 145 143 152 159 163 142 134 125 131 125 119 115 107 92 89 88 88 92 95 95 93 85 67 71 86 93 96 75 84 98 86 75 79 90 97 108 97 59 32 44 119 107 99 98 98 108 73 49 34 27 20 14 18 19 15 28 31 22 24 16 15
124 220 160 253 320 231 254 225 238 184 17 107 139 152 170 88 37 142 150 154 189 182 176 158 148 146 145 148 151 150 153 155 157 155 160 163 159 153 147 123 108 107 137 142 147 134 136 122 109 109 97 87 88 94 99 104 103 102 98 90 87 86 88 91 88 85 86 87 102 116 112 110 115 132 173 138 122 116 109 88 62 54 50 46 28 348 22 20 18 28 22 24 11 9 4 334 324
232 273 91 30 229 250 4 208 223 152 140 165 169 173 100 143 111 173 171 167 132 115 136 144 146 147 144 142 147 155 157 162 165 164 159 161 156 160 161 152 154 148 150 149 145 140 132 123 119 114 108 101 84 75 73 83 95 101 104 103 94 87 98 96 95 87 108 110 125 136 114 122 134 149 148 121 94 90 71 57 52 50 51 45 340 334 25 22 23 18 22 14 349 344 331 310 309
182 233 96 25 2 342 343 278 237 204 158 170 137 121 139 146 144 167 159 247 142 120 126 135 134 136 141 146 160 161 164 167 170 166 165 168 168 173 171 162 155 124 125 151 150 142 137 134 123 123 109 110 97 88 77 79 79 96 107 99 95 102 108 115 123 132 128 149 139 113 106 108 128 131 115 85 78 70 60 56 55 56 58 18 330 26 30 24 12 20 15 353 343 325 308 306 294
196 139 180 106 40 20 12 11 316 209 138 119 115 120 138 20 141 120 175 148 128 123 127 130 136 140 146 150 161 162 163 167 167 163 161 154 155 154 146 135 137 139 141 153 148 149 142 145 144 134 123 119 113 105 93 89 86 82 97 106 108 117 103 116 127 132 128 100 76 83 86 99 102 98 84 80 77 68 65 73 88 93 65 5 36 45 39 23 15 5 358 329 314 307 288 280 265
141 123 86 62 69 30 18 37 60 88 101 122 127 115 95 131 247 74 190 151 131 128 131 135 141 148 154 161 162 164 169 175 168 169 172 151 155 160 167 161 153 167 156 150 149 152 154 144 155 151 138 134 124 111 118 109 95 104 107 116 123 122 128 120 104 82 71 77 58 76 80 92 89 99 88 79 86 95 104 117 115 80 44 23 34 38 25 25 9 337 323 313 308 300 300 306 323
116 108 115 117 161 18 18 49 58 78 70 58 120 106 92 352 340 133 103 153 131 131 138 141 148 158 159 162 162 168 171 178 180 165 154 154 167 179 175 163 174 162 146 154 149 153 163 155 159 153 137 149 126 125 130 113 113 115 123 117 114 123 128 125 128 126 115 100 94 98 98 102 98 89 92 93 103 121 127 115 62 54 48 25 32 35 359 17 323 294 299 305 316 314 308 317 321
102 122 103 73 75 74 41 40 38 20 32 25 86 72 32 342 347 176 149 158 139 137 143 148 152 160 164 163 164 168 175 182 176 170 178 174 181 181 181 179 178 162 161 165 150 145 156 157 162 158 150 145 150 136 139 128 122 126 130 115 124 129 129 126 131 136 135 125 118 115 120 113 122 118 123 117 122 126 110 93 93 63 45 26 23 13 345 351 327 284 274 271 280 289 305 317 310
135 125 101 126 59 41 19 52 50 359 53 7 5 83 356 353 284 227 152 150 145 142 149 153 156 161 165 168 166 170 178 181 184 192 195 182 170 178 189 184 173 170 168 160 147 150 156 154 151 149 147 149 143 152 135 132 122 118 127 121 130 134 129 128 136 143 145 142 138 141 144 150 148 147 142 137 133 123 116 91 56 54 47 34 356 344 358 357 338 325 326 321 303 293 302 305 311
127 57 92 107 51 21 24 84 83 68 37 347 328 150 228 264 272 209 147 146 142 138 150 156 158 162 167 175 178 176 177 182 194 202 190 174 173 179 187 182 175 168 161 152 146 156 153 152 146 146 157 154 155 151 137 130 121 124 125 129 130 124 127 129 136 140 147 148 152 156 158 157 137 130 131 118 130 136 126 108 91 57 46 33 350 16 19 2 351 343 325 331 326 329 316 315 329
91 144 71 80 111 348 343 119 166 79 40 62 86 96 218 286 266 218 149 152 149 151 156 158 160 165 170 181 185 183 188 196 197 194 182 172 173 179 183 178 172 157 153 159 166 155 149 148 147 150 163 155 164 161 143 134 127 122 131 130 131 124 133 132 135 138 141 148 134 130 133 135 127 129 136 140 134 127 117 107 76 68 48 44 41 24 17 350 350 323 312 325 318 317 305 320 331
24 80 295 5 99 189 7 336 126 108 72 74 95 65 222 279 211 212 172 156 148 150 159 161 164 170 174 183 194 189 197 200 203 191 176 172 171 176 181 182 170 162 165 168 159 151 149 149 150 149 153 153 150 158 140 131 119 125 131 138 120 128 131 130 135 139 133 128 109 107 108 121 128 134 129 127 112 108 120 102 76 49 56 92 46 11 3 356 334 305 292 284 337 323 336 333 351
20 88 223 166 106 163 113 335 290 117 122 49 95 151 85 29 321 243 171 157 155 153 161 165 169 175 178 185 199 195 193 200 203 189 177 172 174 173 179 180 176 168 162 163 161 153 145 154 154 153 159 154 149 143 130 123 114 122 127 117 119 125 126 128 133 126 129 122 125 124 129 132 126 129 126 126 134 142 135 116 116 117 96 56 39 9 359 325 316 310 292 254 202 288 311 310 339
274 44 153 200 152 151 120 183 271 240 130 74 44 90 240 273 12 310 183 160 157 161 167 170 174 179 183 187 200 191 195 190 198 191 181 174 167 169 176 176 170 164 164 164 162 160 154 151 147 153 152 149 141 144 142 126 116 110 102 113 125 122 124 118 124 128 130 131 130 131 136 138 142 144 142 140 130 140 123 123 109 86 75 43 23 11 330 298 260 260 307 298 241 266 296 321 331
199 189 106 305 77 122 143 168 209 117 34 121 114 88 94 112 93 46 334 228 171 173 171 175 178 182 186 188 196 193 194 195 204 194 177 171 161 163 168 168 160 165 168 163 157 148 139 140 139 150 147 143 137 132 130 111 101 87 84 99 102 112 107 105 117 121 132 133 135 141 138 144 145 134 142 146 142 134 121 116 100 63 61 41 26 353 332 318 296 253 316 314 295 262 257 315 289
173 104 148 172 139 163 169 3 216 174 130 126 157 135 148 141 132 174 308 35 203 188 173 172 182 186 187 186 193 191 197 208 203 186 173 169 161 158 161 164 159 164 167 156 154 144 140 136 133 134 145 140 128 124 127 117 109 120 119 88 98 128 116 115 109 138 146 142 144 145 141 129 146 142 142 148 135 127 135 139 128 82 61 49 7 359 351 326 336 339 343 338 327 336 55 19 349
122 101 89 122 96 79 51 88 255 305 35 36 142 121 138 155 162 190 218 275 186 197 193 185 189 191 189 188 188 197 198 211 190 177 174 170 159 153 152 160 161 164 166 161 158 156 153 153 147 148 150 144 139 139 141 139 129 120 102 151 158 169 152 134 136 152 169 176 151 148 140 132 134 141 145 150 153 148 130 149 105 69 59 44 332 300 295 299 290 294 311 311 343 3 330 357 248
141 122 106 56 92 108 46 120 229 54 102 291 194 122 144 156 145 157 103 165 210 198 198 201 198 197 195 188 191 196 207 200 124 143 153 152 155 153 153 163 163 168 180 169 175 166 156 151 157 149 143 148 149 150 149 145 148 164 151 167 153 148 151 152 153 187 184 181 153 147 148 124 124 137 152 174 172 155 161 134 88 90 67 245 254 299 297 300 320 352 357 8 43 22 325 323 318
126 133 146 124 251 87 64 110 40 341 102 200 216 115 106 111 166 198 224 237 226 219 209 205 199 201 197 196 195 194 180 187 168 166 161 166 161 159 160 167 171 175 172 177 176 159 156 155 158 152 151 152 156 151 144 152 150 156 147 157 150 130 107 124 140 162 176 168 172 155 148 115 118 149 184 187 175 178 145 126 118 141 147 307 5 346 346 334 342 13 37 24 325 28 313 333 8
129 94 115 211 179 147 277 98 103 33 57 137 101 66 48 34 251 236 239 197 242 239 228 229 217 207 200 199 194 181 183 175 177 167 169 168 166 163 161 170 170 169 175 173 177 176 164 158 158 155 157 153 156 162 157 156 160 162 137 146 130 121 161 120 91 104 121 130 192 163 156 125 152 189 211 215 177 165 167 156 145 145 175 340 64 352 341 328 347 26 20 3 289 18 357 11 31
242 167 158 156 166 229 128 182 103 79 51 98 110 99 332 226 190 232 257 238 236 258 263 233 227 229 221 211 189 180 178 178 177 171 165 162 165 175 178 174 165 175 181 184 183 180 176 168 164 160 161 160 159 170 160 154 138 114 87 85 100 77 69 89 99 90 170 183 163 194 215 157 156 189 211 225 189 187 179 151 145 164 175 212 198 4 316 306 327 63 31 25 37 98 21 338 13
318 216 183 180 188 176 106 112 120 61 341 206 148 69 237 196 211 213 211 219 225 226 225 229 220 216 206 202 198 194 188 180 173 174 173 174 176 173 168 168 175 181 185 188 188 185 171 164 158 157 155 155 160 172 157 154 152 144 131 126 135 123 120 137 170 176 183 182 194 198 195 185 181 187 198 214 215 177 188 169 153 199 229 227 208 284 287 299 322 33 19 359 72 40 127 55 3
318 267 177 176 164 147 131 133 124 171 218 186 228 160 276 155 206 219 216 220 221 216 221 235 220 209 198 200 183 182 182 186 184 174 170 169 172 171 177 180 182 186 186 174 182 185 177 166 162 161 162 163 161 162 159 154 144 154 161 161 163 166 159 198 179 184 181 194 175 181 202 189 187 192 197 199 199 185 163 173 195 216 243 240 275 284 279 260 320 11 2 38 31 98 90 75 32
248 253 135 129 131 146 153 152 142 111 67 44 164 81 184 226 229 216 202 216 219 220 227 233 220 208 200 197 183 181 182 180 177 179 180 178 174 176 183 188 184 189 172 168 179 181 180 175 164 165 163 163 163 153 160 160 156 160 161 166 168 166 174 181 180 189 189 170 175 194 193 191 189 202 206 204 187 181 184 207 215 221 239 267 253 232 252 243 57 48 61 36 57 66 91 97 66
237 335 132 140 140 138 139 134 135 151 107 35 220 206 258 245 249 198 188 214 222 222 217 221 218 210 204 193 185 183 183 182 177 177 183 182 181 186 184 186 188 170 167 175 180 181 179 176 167 159 165 165 163 157 157 166 159 160 163 162 167 181 177 177 169 165 172 181 180 198 212 198 180 178 184 217 203 195 210 211 208 208 233 268 242 245 272 290 82 90 48 37 37 45 65 124 100
62 89 77 76 72 63 60 51 56 345 89 223 196 186 223 286 245 166 194 212 219 215 211 213 209 205 203 194 186 185 184 183 185 183 183 186 186 184 187 179 170 181 176 170 169 168 174 172 169 163 172 173 167 163 158 162 159 153 152 161 162 170 164 127 147 163 174 171 185 196 218 223 211 194 166 191 196 199 210 191 181 188 208 262 210 167 73 57 75 63 68 97 70 58 15 63 86
113 89 92 72 62 64 57 53 10 25 346 243 182 176 179 291 226 189 179 212 208 202 207 212 204 204 204 196 183 183 183 183 186 191 190 188 186 178 161 173 181 169 166 167 168 171 173 175 173 173 176 171 170 169 161 165 161 158 158 161 163 162 162 151 146 155 151 155 185 200 207 229 243 230 322 214 188 191 191 187 179 168 156 162 103 162 196 145 127 107 114 87 52 63 29 47 65
127 106 117 95 38 17 36 19 28 217 262 262 237 183 168 211 290 223 212 207 200 199 201 196 198 199 199 193 189 184 183 183 184 185 192 180 153 155 164 171 173 172 163 171 173 171 176 177 174 176 173 172 171 169 167 169 166 168 162 163 166 167 161 162 165 169 178 181 188 195 204 225 251 315 281 262 227 186 188 159 126 120 134 108 259 210 192 164 160 127 103 85 66 59 72 48 56
96 120 102 104 284 40 334 28 23 220 216 201 100 143 170 230 237 180 224 219 203 205 199 194 192 194 194 192 187 187 183 181 181 183 178 171 172 168 172 175 169 171 178 179 177 177 177 178 177 177 183 176 173 167 173 173 172 176 173 173 174 167 169 168 171 171 177 179 182 183 174 201 208 236 246 222 234 201 197 203 217 210 273 296 256 191 193 170 177 124 118 106 82 58 48 58 58
150 143 141 100 84 72 199 251 262 306 284 203 112 88 253 260 293 221 208 209 213 202 201 198 190 190 190 188 180 183 185 184 184 179 176 178 178 179 177 174 177 179 180 179 177 178 180 181 180 182 186 179 172 170 174 174 183 183 181 180 177 172 176 175 175 172 178 179 175 179 182 185 190 208 209 216 212 191 197 215 205 198 207 244 244 185 147 142 130 125 122 103 85 139 103 63 63
194 178 164 166 151 156 197 187 198 211 219 117 124 133 229 147 241 298 255 217 194 195 199 193 192 191 188 179 171 178 184 186 183 180 180 183 183 178 177 181 182 180 179 178 178 179 180 183 182 184 180 183 177 177 172 180 184 183 184 183 176 177 180 181 182 177 172 171 177 176 187 179 186 205 204 215 194 190 199 202 204 198 211 224 222 178 137 138 127 115 116 130 129 168 103 81 58
273 168 62 107 207 147 147 213 140 132 117 134 178 212 203 195 238 276 179 342 208 186 185 173 180 181 173 162 171 179 184 185 185 184 184 187 183 180 179 181 183 181 179 179 179 177 182 187 187 187 183 182 183 178 180 183 185 178 178 177 178 178 179 178 178 175 173 176 175 180 186 187 198 197 209 203 210 185 198 207 207 209 189 200 195 178 173 159 150 130 125 136 99 57 68 45 37
205 112 180 200 166 104 102 36 354 90 49 244 181 294 292 290 296 227 154 117 211 184 187 181 180 180 174 180 178 179 181 183 185 186 186 187 184 183 181 181 181 179 178 182 182 182 184 182 185 188 185 181 185 186 182 182 180 177 182 181 175 176 176 172 174 177 174 179 175 185 183 192 188 191 193 198 198 196 195 200 214 221 213 201 197 193 179 171 160 143 138 139 205 62 95 72 34
101 181 201 106 85 106 114 163 315 62 158 261 154 237 290 18 273 9 127 182 201 191 188 191 184 177 183 187 179 177 179 183 188 189 187 184 183 182 183 185 182 182 184 184 185 182 182 183 184 184 184 185 189 185 183 180 182 187 183 185 184 184 181 178 173 174 169 164 178 179 177 171 193 191 185 192 187 188 193 202 203 221 219 213 214 204 186 170 157 147 141 160 174 159 53 85 77
115 192 196 125 22 24 35 104 283 156 279 266 280 260 264 199 252 166 221 201 203 201 190 182 186 187 190 188 184 178 177 179 183 185 185 187 185 185 184 184 185 188 188 186 180 175 178 183 185 186 188 189 185 185 185 185 182 183 185 187 184 187 188 183 177 170 162 171 175 175 181 193 185 181 184 191 189 189 189 194 197 208 206 214 208 207 190 175 163 163 163 204 194 162 51 332 289
352 39 97 297 103 157 154 205 178 121 212 49 295 59 252 210 217 194 204 201 193 187 190 196 194 192 189 188 185 178 177 179 181 182 184 188 189 187 184 182 183 184 183 181 175 175 181 183 182 187 187 183 182 186 185 188 188 188 187 183 190 190 189 186 180 168 170 183 183 178 185 182 194 181 190 192 195 199 197 195 192 200 204 209 205 206 191 188 163 177 202 217 221 171 244 280 294
278 234 186 183 79 221 116 245 142 176 171 183 199 323 275 262 234 187 215 201 193 183 191 195 194 194 193 192 188 183 179 178 180 180 183 187 189 189 187 186 185 181 179 172 172 180 183 181 184 182 179 180 186 189 185 192 186 194 186 188 188 185 189 183 175 178 183 190 186 184 189 191 156 159 143 127 122 110 130 216 230 219 215 205 208 211 193 176 184 212 221 238 267 203 254 273 287
193 172 181 180 126 157 161 246 7 95 103 201 137 246 266 272 353 306 309 274 190 197 191 193 193 191 192 195 196 185 181 184 178 180 180 182 185 187 185 182 175 169 170 172 176 175 177 183 186 182 180 184 185 187 188 187 188 191 196 194 192 187 181 176 181 182 191 187 189 190 175 155 142 133 139 148 156 153 148 148 164 225 240 231 212 211 201 164 191 205 240 212 230 226 236 256 270